Regional Weather Roundup
Issued by NWS

Home | Current Version | Previous Version | Graphics & Text | Print | Product List | Glossary On
Versions: 1 2 3 4 5 6 7 8 9 10 11 12 13 14 15 16 17 18 19 20 21 22 23 24 25 26 27 28 29 30 31 32 33 34 35 36 37 38 39 40 41 42 43 44 45 46 47 48 49 50
000
ASUS43 KMPX 281101
RWRMN
WEATHER ROUNDUP FOR MINNESOTA
NATIONAL WEATHER SERVICE TWIN CITIES/CHANHASSEN MN
600 AM CDT SAT MAY 28 2016


NOTE: "FAIR" INDICATES FEW OR NO CLOUDS BELOW 12,000 FEET WITH NO
SIGNIFICANT WEATHER AND/OR OBSTRUCTIONS TO VISIBILITY. N/A MEANS
CURRENT SKY AND/OR WEATHER CONDITIONS ARE NOT AVAILABLE.

MNZ060>063-068>070-281200-
   Twin Cities Metro

CITY           SKY/WX    TMP DP  RH WIND       PRES   REMARKS
TWIN CITIES    CLOUDY    62  59  90 N5        29.76R
ST PAUL        CLOUDY    61  60  97 N6        29.76S
CRYSTAL        CLOUDY    60  57  89 CALM      29.76R FOG
BLAINE         FOG       61  61 100 N3        29.76S VSB 1
EDEN PRAIRIE   CLOUDY    62  58  86 N8        29.75R FOG
SOUTH ST PAUL  CLOUDY    61  60  95 N3        29.76R FOG
LAKE ELMO      LGT RAIN  61  61 100 E3        29.78R
$$
MNZ001>005-007-008-013>017-022>024-027-028-281200-
   Northwest Minnesota

CITY           SKY/WX    TMP DP  RH WIND       PRES   REMARKS
BEMIDJI        MOCLDY    56  53  92 CALM      29.83R
HALLOCK        CLOUDY    61  57  88 E5        29.84R
ROSEAU         CLOUDY    55  50  82 N3        29.86R
WARROAD        PTCLDY    57  54  88 NE5       29.86S
THIEF RVR FALL CLOUDY    57  54  88 N3        29.85S
CROOKSTON      CLOUDY    59  55  88 E5        29.84S
FOSSTON        CLOUDY    54  54 100 CALM      29.84S
DETROIT LAKES  PTCLDY    55  54  94 NE5       29.83S
MOORHEAD       CLOUDY    57  55  94 N3        29.82S
PARK RAPIDS    MOCLDY    56  53  90 NW6       29.82R
MAHNOMEN       FAIR      53  52  97 N3        29.82F
$$
MNZ006-009>011-018-025>026-281200-
   North Central Minnesota

CITY           SKY/WX    TMP DP  RH WIND       PRES   REMARKS
BAUDETTE       LGT RAIN  58  55  90 E3        29.85R
FLAG ISLAND    CLOUDY    59  55  88 NE6       29.86S
INTL FALLS     LGT RAIN  57  54  89 NE6       29.85R
WASKISH        LGT RAIN  55  55 100 CALM      29.84S
BIG FORK       DRIZZLE   55  54  94 NE7       29.82S
LONGVILLE      CLOUDY    55  54  94 CALM      29.81R
GRAND RAPIDS   CLOUDY    55  53  93 NW6       29.81R
CRANE LAKE     CLOUDY    55  54  94 NE5       29.84S
ORR            DRIZZLE   55  52  88 CALM      29.79S
COOK           CLOUDY    55  54  94 NE3       29.81S
WALKER         CLOUDY    56  53  89 N3        29.82R
$$
MNZ012-019>021-037-281200-
   Northeast Minnesota

CITY           SKY/WX    TMP DP  RH WIND       PRES   REMARKS
DULUTH         DRZL/FOG  47  46  97 SE3       29.79S VSB 3/4
ELY            DRIZZLE   55  54  94 NE7       29.80R
HIBBING        CLOUDY    54  54 100 N5        29.79R FOG
EVELETH        CLOUDY    57  55  94 CALM      29.80R FOG
DULUTH HARBOR  CLOUDY    45  43  93 N3        29.81S FOG
TWO HARBORS    HAZE      54  48  82 CALM      29.77R VSB 1/2
SILVER BAY     LGT RAIN  54  52  94 NE8       29.77S
GRAND MARAIS     N/A     47  46  97 NE10      29.79R
G MARAIS ARPRT RAIN      55  52  88 N9        29.81S
$$
MNZ029>031-032-039>041-046>048-054>057-064-281200-
   West Central Minnesota

CITY           SKY/WX    TMP DP  RH WIND       PRES   REMARKS
FERGUS FALLS   MOCLDY    57  57 100 CALM      29.77S
WHEATON        CLOUDY    57  55  94 NE3       29.80S
MORRIS         CLOUDY    57  55  94 NE6       29.77S
ALEXANDRIA     CLOUDY    57  55  93 NE9       29.80R
ELBOW LAKE     FAIR      57  56  95 NE3       29.79R
WADENA         CLOUDY    55  54  94 NE6       29.80S
GLENWOOD       CLOUDY    57  55  94 NE7       29.79S
APPLETON       CLOUDY    61  55  82 E6        29.77S
ORTONVILLE     CLOUDY    59  55  88 CALM      29.78R
MADISON        MOCLDY    61  57  88 N7        29.76S
WILLMAR        MOCLDY    59  57  94 NE7       29.78S
$$
MNZ033>034-036-042>043-049>051-058-059-281200-
   Central Minnesota

CITY           SKY/WX    TMP DP  RH WIND       PRES   REMARKS
ST CLOUD       CLOUDY    57  56  96 N3        29.77F
SAUK CENTRE    CLOUDY    56  55  95 N7        29.79S
PAYNESVILLE    CLOUDY    58  58 100 N5        29.78S
AITKIN         CLOUDY    57  54  88 CALM      29.78S
PINE RIVER     CLOUDY    55  55 100 CALM      29.84S
BRAINERD       CLOUDY    56  55  97 NE6       29.80R
STAPLES        CLOUDY    55  55 100 N5        29.80S
LONG PRAIRIE   CLOUDY    55  54  94 N7        29.80S
LITTLE FALLS   CLOUDY    55  54  94 CALM      29.79F
LITCHFIELD     CLOUDY    61  59  94 NE6       29.78R
BUFFALO        CLOUDY    57  56  94 N3        29.79R
MAPLE LAKE     CLOUDY    58  57  99 N3        29.78S FOG
HUTCHINSON     CLOUDY    60  59  96 NE7       29.79R
$$
MNZ037-044-045-052-053-281200-
   East Central Minnesota

CITY           SKY/WX    TMP DP  RH WIND       PRES   REMARKS
PRINCETON      CLOUDY    57  55  94 N6        29.78R
MORA           CLOUDY    54  52  94 CALM      29.79F
CAMBRIDGE      CLOUDY    57  50  77 CALM      29.76R HAZE
RUSH CITY      CLOUDY    54  52  95 N3        29.78R
MOOSE LAKE     CLOUDY    50  48  93 CALM      29.77F FOG
HINCKLEY       CLOUDY    50  50 100 CALM      29.78F
CLOQUET        FOG       48  46  93 CALM      29.79F VSB 3/4
MCGREGOR       CLOUDY    55  54  94 CALM      29.80S
$$
MNZ071>073-080-081-089-090-097-098-281200-
   Southwest Minnesota

CITY           SKY/WX    TMP DP  RH WIND       PRES   REMARKS
MONTEVIDEO     CLOUDY    59  57  94 E6        29.78R
GRANITE FALLS  CLOUDY    60  58  93 N8        29.76F
CANBY          MOCLDY    64  60  88 CALM      29.77R
MARSHALL       CLOUDY    60  58  92 N7        29.75F FOG
REDWOOD FALLS  CLOUDY    60  57  89 NE7       29.75S FOG
OLIVIA         CLOUDY    55  54  94 NE5       29.75S
PIPESTONE      RAIN      61  57  88 CALM      29.75S
WINDOM         LGT RAIN  63  61  94 CALM      29.74S
WORTHINGTON    RAIN      62  61  96 CALM      29.75R FOG
JACKSON        CLOUDY    64  61  88 CALM      29.75R
TRACY          LGT RAIN  60  60  99 E7        29.74F
SLAYTON        DRIZZLE   60  60 100 N5        29.75S
$$
MNZ065>067-074>077-082>085-091>093-281200-
   South Central Minnesota

CITY           SKY/WX    TMP DP  RH WIND       PRES   REMARKS
MANKATO        CLOUDY    63  57  82 NE10      29.74F
NEW ULM        CLOUDY    61  59  94 NE20      29.74S
ST JAMES       CLOUDY    57  57 100 NE3       29.75S FOG
FAIRMONT       CLOUDY    64  61  88 E5        29.74R
GLENCOE        CLOUDY    60  61 100 CALM      29.77S FOG
FARIBAULT      CLOUDY    61  61 100 VRB6      29.75S
OWATONNA       CLOUDY    63  61  94 NE7       29.74F FOG
WASECA         FOG       59  59 100 N7        29.74F VSB 1
ALBERT LEA     CLOUDY    63  63 100 CALM      29.74R FOG
$$
MNZ078>079-086>088-094>096-281200-
   Southeast Minnesota

CITY           SKY/WX    TMP DP  RH WIND       PRES   REMARKS
ROCHESTER      FOG       63  62  97 NE3       29.75R VSB 1
RED WING       LGT RAIN  63  61  94 E5        29.74S
STANTON        FOG       62  60  94 NE3       29.74S VSB 1
DODGE CENTER   CLOUDY    61  61 100 N6        29.73F FOG
WINONA         LGT RAIN  66  64  94 CALM      29.73S
AUSTIN         DRIZZLE   63  61  94 CALM      29.74R
PRESTON        FOG       62  60  96 CALM      29.75R VSB 1/4
$$
ABBREVIATIONS USED IN REMARKS
   TC - TEMPERATURES IN CELSIUS
  WCI - WIND CHILL INDEX
   HX - HEAT INDEX
  VSB - VISIBILITY
$$



USA.gov is the U.S. government's official web portal to all federal, state and local government web resources and services.